Regional Weather Roundup
Issued by NWS

Home | Current Version | Previous Version | Text Only | Print | Product List | Glossary Off
Versions: 1 2 3 4 5 6 7 8 9 10 11 12 13 14 15 16 17 18 19 20 21 22 23 24 25 26 27

000
ASUS45 KBOU 181806
RWRCO

WEATHER ROUNDUP FOR COLORADO
NATIONAL WEATHER SERVICE DENVER/BOULDER CO
1200 PM MDT FRI APR 18 2014

NOTE: "FAIR" INDICATES FEW OR NO CLOUDS BELOW 12000 FEET WITH NO
SIGNIFICANT WEATHER AND/OR OBSTRUCTIONS TO VISIBILITY.

COZ001>005-013-030-031-181900-
...NORTHWEST COLORADO...

CITY           SKY/WX    TMP DP  RH WIND       PRES   REMARKS
CRAIG          MOSUNNY   67  26  21 SW23G32   30.00F
HAYDEN         PTSUNNY   68  27  21 SW20G28   30.05F
MEEKER         PTSUNNY   69  26  20 S18G26    30.03F
MOUNT WERNER   PTSUNNY   46  12  25 S17       30.26F
STEAMBOAT SPGS PTSUNNY   62  23  22 E9        30.05F
WALDEN         CLOUDY    54  23  30 S18       30.11S
$$

COZ006>008-011-181900-
...WEST CENTRAL VALLEYS...

CITY           SKY/WX    TMP DP  RH WIND       PRES   REMARKS
GRAND JUNCTION MOSUNNY   69  28  21 SE12      29.98F
MONTROSE       MOSUNNY   69  29  22 NW7       30.06F
EAGLE          MOSUNNY   57  27  30 CALM      30.11F
RIFLE          PTSUNNY   60  29  30 VRB5      30.03F
DELTA          MOSUNNY   72  26  18 NE7       30.03F
NUCLA            N/A     72  21  15 SW14G23   30.09F
$$

COZ017>023-064>068-181900-
...SOUTHWEST COLORADO...

CITY           SKY/WX    TMP DP  RH WIND       PRES   REMARKS
DURANGO        SUNNY     65  22  19 SE8       30.15F
CORTEZ         SUNNY     71  23  16 S8        30.08F
PAGOSA SPRINGS SUNNY     60  18  19 SE7       30.21F
TELLURIDE      MOSUNNY   57  19  23 S8        30.22F
WOLF CREEK PAS SUNNY     39  21  48 SW12G25   30.38S
$$

COZ009-010-012-014-032>034-037-058>063-181900-
...CENTRAL COLORADO...

CITY           SKY/WX    TMP DP  RH WIND       PRES   REMARKS
ASPEN          PTSUNNY   63  20  19 SW10G23   30.12F
BUENA VISTA    MOSUNNY   59  22  23 E3        30.15F
COPPER MTN     PTSUNNY   45  18  33 SW12G21   30.34S
BERTHOUD PASS  FAIR      37  30  75 W23G36    30.35S
COTTONWOOD PAS MOSUNNY   55  21  26 W6        30.25S
GUNNISON       MOSUNNY   55  25  30 E3        30.21F
KREMMLING      CLOUDY    55  23  28 CALM      30.13F
LEADVILLE      PTSUNNY   47  18  31 S10       30.23S
MONARCH PASS   SUNNY     41  19  42 W28G39    30.45F
SALIDA         MOSUNNY   65  20  17 S14G24    30.20F
SUNLIGHT       PTSUNNY   48  27  43 CALM      30.29F
WILKERSON PASS SUNNY     46  21  36 SW8G18    30.33S
$$

COZ069>075-181900-
...SAN LUIS VALLEY/SANGRE DE CRISTO MOUNTAINS...

CITY           SKY/WX    TMP DP  RH WIND       PRES   REMARKS
ALAMOSA        SUNNY     59  29  31 E6        30.19F
LA VETA PASS   SUNNY     54  25  32 SW13G18   30.30S
SAGUACHE       SUNNY     57  23  26 S7        30.21F
$$

COZ035-036-038>040-181900-
...NORTHERN COLORADO FRONT RANGE...

CITY           SKY/WX    TMP DP  RH WIND       PRES   REMARKS
DENVER INTL AP PTSUNNY   72  25  17 SE9       29.97F
DMNS CITY PARK   N/A     74  22  14 S3G10     29.96F
AURORA         PTSUNNY   72  25  17 E10G17    29.98F
FRONT RANGE AP PTSUNNY   73  27  17 S6        29.99F
ERIE MUNI ARPT MOSUNNY   73  27  18 S7        29.95F
BOULDER MUN AP MOSUNNY   72  32  23 SE5       29.95F
CENTENNIAL     PTSUNNY   72  24  16 SE3       29.99F
BROOMFIELD     PTSUNNY   72  27  18 SE9       29.98F
FORT COLLINS   MOSUNNY   70  37  30 S13       29.97F
LONGMONT       MOSUNNY   75  31  19 SE5       29.97F
$$

COZ041-046-047-076>085-087-088-181900-
...PIKES PEAK/PALMER DIVIDE AND SOUTHERN FOOTHILLS...

CITY           SKY/WX    TMP DP  RH WIND       PRES   REMARKS
COLO. SPRINGS  MOSUNNY   65  34  31 SE13      30.06F
A. F. ACADEMY  SUNNY     68  25  19 S14       30.06F
ELLICOTT       NOT AVBL
FALCON         SUNNY     69  21  16 SE10      30.10S
FORT CARSON    SUNNY     65  37  36 SE7       30.04F
LIMON          SUNNY     69  26  20 S9        30.02F
MONUMENT HILL  SUNNY     68  25  19 S10       30.06F
TRINIDAD       SUNNY     70  27  20 VRB7      30.07F
$$

COZ042>045-048>051-090-091-181900-
...NORTHEAST COLORADO...

CITY           SKY/WX    TMP DP  RH WIND       PRES   REMARKS
GREELEY ARPT   SUNNY     70  39  32 S6        29.96F
AKRON          SUNNY     72  28  19 S7        29.96F
BURLINGTON     SUNNY     68  38  33 S16       30.01F
WRAY           MOSUNNY   71  38  29 S17G24    29.96F
STERLING       SUNNY     73  43  33 S7        29.93F
HOLYOKE        MOSUNNY   73  39  29 S15       29.96F
FORT MORGAN    SUNNY     73  31  21 SE13      29.95F
$$

COZ086-089-092>099-181900-
...SOUTHEAST COLORADO...

CITY           SKY/WX    TMP DP  RH WIND       PRES   REMARKS
PUEBLO         SUNNY     63  40  42 VRB3      30.01F
LA JUNTA       SUNNY     65  37  35 VRB3      30.01F
LAMAR          SUNNY     67  37  33 SW6       30.01F
SPRINGFIELD      N/A     70  36  28 S15       30.04F
$$



USA.gov is the U.S. government's official web portal to all federal, state and local government web resources and services.